• In Belarus
  • List of Countries
  • For 7 days
  • Water Temperature
  • Satellite Maps
  • Weather Map
  • Weather Widgets
  • user-avatar
    Login

    Hourly Weather Asadabad

    Today, 17 January, Thursday

    Time Temperature Precipitation Wind Pressure Humidity
    00:00 +4°C° 0 mm 3 mps 660 mmHg 36%
    01:00 +4°C° 0 mm 3 mps 660 mmHg 34%
    02:00 +3°C° 0 mm 3 mps 660 mmHg 31%
    03:00 +3°C° 0 mm 3 mps 660 mmHg 30%
    04:00 +3°C° 0 mm 3 mps 660 mmHg 28%
    05:00 +3°C° 0 mm 3 mps 659 mmHg 27%
    06:00 +3°C° 0 mm 3 mps 659 mmHg 26%
    07:00 +3°C° 0 mm 3 mps 660 mmHg 25%
    08:00 +3°C° 0 mm 3 mps 660 mmHg 24%
    09:00 +6°C° 0 mm 2 mps 659 mmHg 21%
    10:00 +9°C° 0 mm 2 mps 659 mmHg 19%
    11:00 +12°C° 0 mm 1 mps 659 mmHg 16%
    12:00 +13°C° 0 mm 1 mps 659 mmHg 16%
    13:00 +13°C° 0 mm 1 mps 659 mmHg 17%
    14:00 +14°C° 0 mm 1 mps 658 mmHg 17%
    15:00 +13°C° 0 mm 1 mps 658 mmHg 21%
    16:00 +12°C° 0 mm 1 mps 658 mmHg 25%
    17:00 +10°C° 0 mm 0 mps 658 mmHg 29%
    18:00 +9°C° 0 mm 1 mps 658 mmHg 29%
    19:00 +8°C° 0 mm 1 mps 658 mmHg 29%
    20:00 +6°C° 0 mm 2 mps 659 mmHg 29%
    21:00 +6°C° 0 mm 2 mps 659 mmHg 28%
    22:00 +6°C° 0 mm 2 mps 658 mmHg 28%
    23:00 +5°C° 0 mm 3 mps 658 mmHg 27%

    Tomorrow, 18 January, Friday

    Time Temperature Precipitation Wind Pressure Humidity
    00:00 +4°C° 0 mm 3 mps 658 mmHg 27%
    01:00 +4°C° 0 mm 3 mps 658 mmHg 26%
    02:00 +4°C° 0 mm 3 mps 658 mmHg 26%
    03:00 +4°C° 0 mm 3 mps 658 mmHg 26%
    04:00 +5°C° 0 mm 2 mps 658 mmHg 25%
    05:00 +5°C° 0 mm 2 mps 658 mmHg 25%
    06:00 +6°C° 0 mm 2 mps 658 mmHg 25%
    07:00 +6°C° 0 mm 2 mps 658 mmHg 25%
    08:00 +8°C° 0 mm 1 mps 659 mmHg 25%
    09:00 +9°C° 0 mm 1 mps 659 mmHg 23%
    10:00 +11°C° 0 mm 1 mps 660 mmHg 20%
    11:00 +13°C° 0 mm 1 mps 660 mmHg 17%
    12:00 +12°C° 0 mm 1 mps 660 mmHg 19%
    13:00 +12°C° 0 mm 1 mps 659 mmHg 21%
    14:00 +12°C° 0 mm 1 mps 659 mmHg 24%
    15:00 +11°C° 0.1 mm 1 mps 659 mmHg 30%
    16:00 +10°C° 0.1 mm 1 mps 659 mmHg 36%
    17:00 +9°C° 0.1 mm 2 mps 659 mmHg 42%
    18:00 +8°C° 0 mm 2 mps 659 mmHg 43%
    19:00 +8°C° 0 mm 2 mps 659 mmHg 45%
    20:00 +8°C° 0 mm 2 mps 660 mmHg 46%
    21:00 +7°C° 0 mm 2 mps 660 mmHg 47%
    22:00 +7°C° 0 mm 2 mps 660 mmHg 48%
    23:00 +7°C° 0 mm 2 mps 660 mmHg 48%

    Day after tomorrow, 19 January, Saturday

    Time Temperature Precipitation Wind Pressure Humidity
    00:00 +7°C° 0 mm 2 mps 660 mmHg 48%
    01:00 +7°C° 0 mm 2 mps 660 mmHg 48%
    02:00 +7°C° 0 mm 2 mps 660 mmHg 48%
    03:00 +6°C° 0 mm 2 mps 660 mmHg 49%
    04:00 +4°C° 0 mm 3 mps 659 mmHg 49%
    05:00 +4°C° 0 mm 3 mps 659 mmHg 50%
    06:00 +4°C° 0 mm 3 mps 659 mmHg 48%
    07:00 +4°C° 0 mm 3 mps 660 mmHg 47%
    08:00 +4°C° 0 mm 3 mps 660 mmHg 46%
    09:00 +7°C° 0 mm 2 mps 661 mmHg 42%
    10:00 +9°C° 0 mm 2 mps 661 mmHg 38%
    11:00 +12°C° 0 mm 1 mps 661 mmHg 34%
    12:00 +13°C° 0 mm 1 mps 661 mmHg 34%
    13:00 +13°C° 0 mm 1 mps 660 mmHg 34%
    14:00 +14°C° 0 mm 1 mps 660 mmHg 34%
    15:00 +13°C° 0 mm 1 mps 660 mmHg 37%
    16:00 +13°C° 0 mm 1 mps 660 mmHg 40%
    17:00 +12°C° 0 mm 1 mps 660 mmHg 44%
    18:00 +12°C° 0 mm 1 mps 660 mmHg 44%
    19:00 +10°C° 0 mm 2 mps 660 mmHg 45%
    20:00 +9°C° 0 mm 2 mps 660 mmHg 45%
    21:00 +9°C° 0.2 mm 3 mps 660 mmHg 47%
    22:00 +8°C° 0.2 mm 3 mps 660 mmHg 49%
    23:00 +8°C° 0.2 mm 3 mps 660 mmHg 50%

    20 January, Sunday

    Time Temperature Precipitation Wind Pressure Humidity
    00:00 +7°C° 0.6 mm 3 mps 660 mmHg 56%
    01:00 +7°C° 0.6 mm 3 mps 660 mmHg 61%
    02:00 +7°C° 0.6 mm 3 mps 659 mmHg 67%
    03:00 +5°C° 0.9 mm 3 mps 659 mmHg 69%
    04:00 +5°C° 0.9 mm 4 mps 659 mmHg 71%
    05:00 +5°C° 0.9 mm 4 mps 659 mmHg 74%
    06:00 +5°C° 0.2 mm 4 mps 659 mmHg 72%
    07:00 +5°C° 0.2 mm 4 mps 659 mmHg 71%
    08:00 +5°C° 0.2 mm 4 mps 659 mmHg 70%
    09:00 +5°C° 0.6 mm 4 mps 659 mmHg 71%
    10:00 +7°C° 0.6 mm 3 mps 659 mmHg 72%
    11:00 +7°C° 0.6 mm 3 mps 659 mmHg 73%
    12:00 +7°C° 1.5 mm 3 mps 658 mmHg 75%
    13:00 +7°C° 1.5 mm 3 mps 658 mmHg 78%
    14:00 +5°C° 1.5 mm 3 mps 658 mmHg 81%
    15:00 +5°C° 1.6 mm 3 mps 657 mmHg 81%
    16:00 +5°C° 1.6 mm 3 mps 657 mmHg 82%
    17:00 +4°C° 1.6 mm 3 mps 657 mmHg 83%
    18:00 +4°C° 1.5 mm 3 mps 657 mmHg 83%
    19:00 +4°C° 1.5 mm 3 mps 658 mmHg 83%
    20:00 +4°C° 1.5 mm 3 mps 658 mmHg 84%
    21:00 +4°C° 1.1 mm 3 mps 658 mmHg 83%
    22:00 +4°C° 1.1 mm 3 mps 658 mmHg 83%
    23:00 +3°C° 1.1 mm 3 mps 658 mmHg 83%

    21 January, Monday

    Time Temperature Precipitation Wind Pressure Humidity
    00:00 +3°C° 0.6 mm 3 mps 658 mmHg 83%
    01:00 +3°C° 0.6 mm 3 mps 658 mmHg 83%
    02:00 +3°C° 0.6 mm 3 mps 657 mmHg 83%
    03:00 +4°C° 0.7 mm 2 mps 657 mmHg 83%
    04:00 +4°C° 0.7 mm 2 mps 657 mmHg 83%
    05:00 +4°C° 0.7 mm 2 mps 657 mmHg 84%
    06:00 +4°C° 0.3 mm 2 mps 657 mmHg 83%
    07:00 +4°C° 0.3 mm 2 mps 658 mmHg 82%
    08:00 +4°C° 0.3 mm 2 mps 658 mmHg 81%
    09:00 +4°C° 0.4 mm 2 mps 658 mmHg 83%
    10:00 +5°C° 0.4 mm 2 mps 658 mmHg 85%
    11:00 +6°C° 0.4 mm 1 mps 658 mmHg 87%
    12:00 +6°C° 0.8 mm 1 mps 657 mmHg 86%
    13:00 +6°C° 0.8 mm 1 mps 656 mmHg 86%
    14:00 +5°C° 0.8 mm 2 mps 656 mmHg 86%
    15:00 +6°C° 0.2 mm 1 mps 656 mmHg 83%
    16:00 +6°C° 0.2 mm 1 mps 656 mmHg 80%
    17:00 +5°C° 0.2 mm 0 mps 656 mmHg 77%
    18:00 +6°C° 0 mm 1 mps 656 mmHg 76%
    19:00 +5°C° 0 mm 1 mps 657 mmHg 76%
    20:00 +4°C° 0 mm 1 mps 657 mmHg 76%
    21:00 +3°C° 0 mm 2 mps 657 mmHg 73%
    22:00 +3°C° 0 mm 2 mps 657 mmHg 70%
    23:00 +3°C° 0 mm 2 mps 657 mmHg 67%

    22 January, Tuesday

    Time Temperature Precipitation Wind Pressure Humidity
    00:00 +2°C° 0 mm 2 mps 657 mmHg 64%
    01:00 +2°C° 0 mm 2 mps 657 mmHg 62%
    02:00 +2°C° 0 mm 2 mps 656 mmHg 60%
    03:00 +1°C° 0 mm 3 mps 656 mmHg 59%
    04:00 +1°C° 0 mm 3 mps 656 mmHg 58%
    05:00 +1°C° 0 mm 3 mps 656 mmHg 57%
    06:00 +1°C° 0 mm 3 mps 656 mmHg 57%
    07:00 +1°C° 0 mm 3 mps 656 mmHg 57%
    08:00 +1°C° 0 mm 3 mps 656 mmHg 57%
    09:00 +3°C° 0 mm 2 mps 656 mmHg 60%
    10:00 +5°C° 0 mm 1 mps 656 mmHg 63%
    11:00 +7°C° 0 mm 1 mps 656 mmHg 67%
    12:00 +7°C° 0 mm 1 mps 656 mmHg 67%
    13:00 +7°C° 0 mm 1 mps 656 mmHg 67%
    14:00 +7°C° 0 mm 0 mps 656 mmHg 68%
    15:00 +6°C° 0 mm 0 mps 656 mmHg 64%
    16:00 +6°C° 0 mm 0 mps 656 mmHg 60%
    17:00 +5°C° 0 mm 0 mps 656 mmHg 56%
    18:00 +5°C° 0 mm 1 mps 657 mmHg 57%
    19:00 +3°C° 0 mm 2 mps 658 mmHg 57%
    20:00 +2°C° 0 mm 2 mps 659 mmHg 57%
    21:00 +1°C° 0 mm 3 mps 659 mmHg 57%
    22:00 0°C° 0 mm 3 mps 659 mmHg 57%
    23:00 0°C° 0 mm 3 mps 660 mmHg 57%
    Show more